Time,TemperatureF,DewpointF,PressureIn,WindDirection,WindDirectionDegrees,WindSpeedMPH,WindSpeedGustMPH,Humidity,HourlyPrecipIn,Conditions,Clouds,dailyrainin,SoftwareType,DateUTC
2013-02-19 00:02:00,28.0,-99.9,29.74,East,100,0.0,0.0,0,-99.99,,,-99.99,,2013-02-19 08:02:00,
2013-02-19 00:11:00,27.0,-99.9,29.73,East,100,0.0,0.0,0,-99.99,,,-99.99,,2013-02-19 08:11:00,
2013-02-19 00:22:00,26.0,-99.9,29.73,East,100,0.0,0.0,0,-99.99,,,-99.99,,2013-02-19 08:22:00,
2013-02-19 00:32:00,26.0,-99.9,29.73,East,100,0.0,0.0,0,-99.99,,,-99.99,,2013-02-19 08:32:00,
2013-02-19 00:42:00,26.0,-99.9,29.72,East,100,0.0,0.0,0,-99.99,,,-99.99,,2013-02-19 08:42:00,
2013-02-19 00:52:00,26.0,-99.9,29.72,East,100,0.0,0.0,0,-99.99,,,-99.99,,2013-02-19 08:52:00,
2013-02-19 01:02:00,26.0,-99.9,29.71,East,100,0.0,0.0,0,-99.99,,,-99.99,,2013-02-19 09:02:00,
2013-02-19 01:11:00,26.0,-99.9,29.71,ESE,120,0.0,0.0,0,-99.99,,,-99.99,,2013-02-19 09:11:00,
2013-02-19 01:22:00,26.0,-99.9,29.70,ESE,120,0.0,0.0,0,-99.99,,,-99.99,,2013-02-19 09:22:00,
2013-02-19 01:32:00,26.0,-99.9,29.70,ESE,120,0.0,0.0,0,-99.99,,,-99.99,,2013-02-19 09:32:00,
2013-02-19 01:42:00,26.0,-99.9,29.70,ESE,115,0.0,2.0,0,-99.99,,,-99.99,,2013-02-19 09:42:00,
2013-02-19 01:53:00,26.0,-99.9,29.70,ESE,115,0.0,2.0,0,-99.99,,,-99.99,,2013-02-19 09:53:00,
2013-02-19 02:02:00,25.0,-99.9,29.70,ESE,115,0.0,1.0,0,-99.99,,,-99.99,,2013-02-19 10:02:00,
2013-02-19 02:11:00,25.0,-99.9,29.70,ESE,120,0.0,2.0,0,-99.99,,,-99.99,,2013-02-19 10:11:00,
2013-02-19 02:22:00,25.0,-99.9,29.70,ESE,120,0.0,2.0,0,-99.99,,,-99.99,,2013-02-19 10:22:00,
2013-02-19 02:32:00,26.0,-99.9,29.69,SE,145,0.0,3.0,0,-99.99,,,-99.99,,2013-02-19 10:32:00,
2013-02-19 02:42:00,25.0,-99.9,29.69,SSE,165,1.0,3.0,0,-99.99,,,-99.99,,2013-02-19 10:42:00,
2013-02-19 02:52:00,25.0,-99.9,29.69,SSE,165,1.0,3.0,0,-99.99,,,-99.99,,2013-02-19 10:52:00,
2013-02-19 03:01:00,25.0,-99.9,29.68,ESE,105,2.0,3.0,0,-99.99,,,-99.99,,2013-02-19 11:01:00,
2013-02-19 03:12:00,25.0,-99.9,29.68,SE,135,0.0,2.0,0,-99.99,,,-99.99,,2013-02-19 11:12:00,
2013-02-19 03:22:00,25.0,-99.9,29.68,SE,135,0.0,2.0,0,-99.99,,,-99.99,,2013-02-19 11:22:00,
2013-02-19 03:32:00,25.0,-99.9,29.68,ESE,105,0.0,2.0,0,-99.99,,,-99.99,,2013-02-19 11:32:00,
2013-02-19 03:42:00,25.0,-99.9,29.68,SSE,155,1.0,2.0,0,-99.99,,,-99.99,,2013-02-19 11:42:00,
2013-02-19 03:52:00,25.0,-99.9,29.68,SSE,155,1.0,2.0,0,-99.99,,,-99.99,,2013-02-19 11:52:00,
2013-02-19 04:02:00,24.0,-99.9,29.68,ESE,115,0.0,2.0,0,-99.99,,,-99.99,,2013-02-19 12:02:00,
2013-02-19 04:12:00,25.0,-99.9,29.68,SE,125,1.0,2.0,0,-99.99,,,-99.99,,2013-02-19 12:12:00,
2013-02-19 04:22:00,25.0,-99.9,29.68,SE,125,1.0,2.0,0,-99.99,,,-99.99,,2013-02-19 12:22:00,
2013-02-19 04:33:00,26.0,-99.9,29.68,SE,140,1.0,1.0,0,-99.99,,,-99.99,,2013-02-19 12:33:00,
2013-02-19 04:42:00,26.0,-99.9,29.68,ESE,115,0.0,1.0,0,-99.99,,,-99.99,,2013-02-19 12:42:00,
2013-02-19 04:53:00,26.0,-99.9,29.68,ESE,115,0.0,1.0,0,-99.99,,,-99.99,,2013-02-19 12:53:00,
2013-02-19 05:02:00,26.0,-99.9,29.68,SE,145,0.0,3.0,0,-99.99,,,-99.99,,2013-02-19 13:02:00,
2013-02-19 05:11:00,27.0,-99.9,29.67,ENE,75,0.0,3.0,0,-99.99,,,-99.99,,2013-02-19 13:11:00,
2013-02-19 05:22:00,27.0,-99.9,29.67,ENE,75,0.0,3.0,0,-99.99,,,-99.99,,2013-02-19 13:22:00,
2013-02-19 05:32:00,27.0,-99.9,29.67,NNE,20,0.0,1.0,0,-99.99,,,-99.99,,2013-02-19 13:32:00,
2013-02-19 05:42:00,26.0,-99.9,29.67,SE,135,0.0,1.0,0,-99.99,,,-99.99,,2013-02-19 13:42:00,
2013-02-19 05:52:00,26.0,-99.9,29.67,SE,135,0.0,1.0,0,-99.99,,,-99.99,,2013-02-19 13:52:00,
2013-02-19 06:02:00,26.0,-99.9,29.66,ESE,110,0.0,1.0,0,-99.99,,,-99.99,,2013-02-19 14:02:00,
2013-02-19 06:12:00,26.0,-99.9,29.66,ESE,120,0.0,1.0,0,-99.99,,,-99.99,,2013-02-19 14:12:00,
2013-02-19 06:22:00,26.0,-99.9,29.66,ESE,120,0.0,1.0,0,-99.99,,,-99.99,,2013-02-19 14:22:00,
2013-02-19 06:33:00,26.0,-99.9,29.67,ESE,120,0.0,1.0,0,-99.99,,,-99.99,,2013-02-19 14:33:00,
2013-02-19 06:42:00,26.0,-99.9,29.67,ESE,115,0.0,1.0,0,-99.99,,,-99.99,,2013-02-19 14:42:00,
2013-02-19 06:52:00,26.0,-99.9,29.67,ESE,115,0.0,1.0,0,-99.99,,,-99.99,,2013-02-19 14:52:00,
2013-02-19 07:02:00,25.0,-99.9,29.67,ESE,110,0.0,1.0,0,-99.99,,,-99.99,,2013-02-19 15:02:00,
2013-02-19 07:11:00,26.0,-99.9,29.68,SE,140,0.0,1.0,0,-99.99,,,-99.99,,2013-02-19 15:11:00,
2013-02-19 07:22:00,26.0,-99.9,29.68,SE,140,0.0,1.0,0,-99.99,,,-99.99,,2013-02-19 15:22:00,
2013-02-19 07:32:00,26.0,-99.9,29.68,SE,130,0.0,0.0,0,-99.99,,,-99.99,,2013-02-19 15:32:00,
2013-02-19 07:42:00,25.0,-99.9,29.68,SE,130,0.0,0.0,0,-99.99,,,-99.99,,2013-02-19 15:42:00,
2013-02-19 07:52:00,25.0,-99.9,29.68,SE,130,0.0,0.0,0,-99.99,,,-99.99,,2013-02-19 15:52:00,
2013-02-19 08:02:00,24.0,-99.9,29.68,SE,140,0.0,0.0,0,-99.99,,,-99.99,,2013-02-19 16:02:00,
2013-02-19 08:12:00,24.0,-99.9,29.69,SE,140,0.0,0.0,0,-99.99,,,-99.99,,2013-02-19 16:12:00,
2013-02-19 08:22:00,24.0,-99.9,29.69,SE,140,0.0,0.0,0,-99.99,,,-99.99,,2013-02-19 16:22:00,
2013-02-19 08:32:00,24.0,-99.9,29.69,SE,140,0.0,0.0,0,-99.99,,,-99.99,,2013-02-19 16:32:00,
2013-02-19 08:42:00,25.0,-99.9,29.69,SE,140,0.0,0.0,0,-99.99,,,-99.99,,2013-02-19 16:42:00,
2013-02-19 08:52:00,25.0,-99.9,29.69,SE,140,0.0,0.0,0,-99.99,,,-99.99,,2013-02-19 16:52:00,
2013-02-19 09:01:00,27.0,-99.9,29.69,SE,140,0.0,0.0,0,-99.99,,,-99.99,,2013-02-19 17:01:00,
2013-02-19 09:11:00,28.0,-99.9,29.70,SE,140,0.0,0.0,0,-99.99,,,-99.99,,2013-02-19 17:11:00,
2013-02-19 09:21:00,28.0,-99.9,29.70,SE,140,0.0,0.0,0,-99.99,,,-99.99,,2013-02-19 17:21:00,
2013-02-19 09:32:00,29.0,-99.9,29.70,WNW,290,0.0,1.0,0,-99.99,,,-99.99,,2013-02-19 17:32:00,
2013-02-19 09:42:00,30.0,-99.9,29.70,NW,315,0.0,2.0,0,-99.99,,,-99.99,,2013-02-19 17:42:00,
2013-02-19 09:52:00,30.0,-99.9,29.70,NW,315,0.0,2.0,0,-99.99,,,-99.99,,2013-02-19 17:52:00,
2013-02-19 10:02:00,30.0,-99.9,29.70,NW,315,0.0,2.0,0,-99.99,,,-99.99,,2013-02-19 18:02:00,
2013-02-19 10:11:00,32.0,-99.9,29.71,NNW,335,0.0,3.0,0,-99.99,,,-99.99,,2013-02-19 18:11:00,
2013-02-19 10:22:00,32.0,-99.9,29.71,NNW,335,0.0,3.0,0,-99.99,,,-99.99,,2013-02-19 18:22:00,
2013-02-19 10:32:00,32.0,-99.9,29.71,NNW,335,1.0,5.0,0,-99.99,,,-99.99,,2013-02-19 18:32:00,
2013-02-19 10:42:00,32.0,-99.9,29.71,WNW,295,3.0,9.0,0,-99.99,,,-99.99,,2013-02-19 18:42:00,
2013-02-19 10:52:00,32.0,-99.9,29.71,WNW,295,3.0,9.0,0,-99.99,,,-99.99,,2013-02-19 18:52:00,
2013-02-19 11:01:00,32.0,-99.9,29.71,WSW,255,3.0,7.0,0,-99.99,,,-99.99,,2013-02-19 19:01:00,
2013-02-19 11:11:00,32.0,-99.9,29.71,WNW,295,2.0,7.0,0,-99.99,,,-99.99,,2013-02-19 19:11:00,
2013-02-19 11:22:00,32.0,-99.9,29.71,WNW,295,2.0,7.0,0,-99.99,,,-99.99,,2013-02-19 19:22:00,
2013-02-19 11:32:00,33.0,-99.9,29.72,WNW,300,3.0,6.0,0,-99.99,,,-99.99,,2013-02-19 19:32:00,
2013-02-19 11:42:00,33.0,-99.9,29.72,NW,315,5.0,6.0,0,-99.99,,,-99.99,,2013-02-19 19:42:00,
2013-02-19 11:52:00,33.0,-99.9,29.72,NW,315,5.0,6.0,0,-99.99,,,-99.99,,2013-02-19 19:52:00,
2013-02-19 12:02:00,34.0,-99.9,29.72,North,350,2.0,7.0,0,-99.99,,,-99.99,,2013-02-19 20:02:00,
2013-02-19 12:12:00,34.0,-99.9,29.72,WNW,295,3.0,12.0,0,-99.99,,,-99.99,,2013-02-19 20:12:00,
2013-02-19 12:22:00,34.0,-99.9,29.72,WNW,295,3.0,12.0,0,-99.99,,,-99.99,,2013-02-19 20:22:00,
2013-02-19 12:32:00,35.0,-99.9,29.72,WNW,290,5.0,7.0,0,-99.99,,,-99.99,,2013-02-19 20:32:00,
2013-02-19 12:42:00,34.0,-99.9,29.72,North,350,3.0,9.0,0,-99.99,,,-99.99,,2013-02-19 20:42:00,
2013-02-19 12:52:00,34.0,-99.9,29.72,North,350,3.0,9.0,0,-99.99,,,-99.99,,2013-02-19 20:52:00,
2013-02-19 13:02:00,34.0,-99.9,29.72,NW,320,3.0,6.0,0,-99.99,,,-99.99,,2013-02-19 21:02:00,
2013-02-19 13:11:00,35.0,-99.9,29.73,NW,315,3.0,8.0,0,-99.99,,,-99.99,,2013-02-19 21:11:00,
2013-02-19 13:22:00,35.0,-99.9,29.73,NW,315,3.0,8.0,0,-99.99,,,-99.99,,2013-02-19 21:22:00,
2013-02-19 13:32:00,34.0,-99.9,29.73,North,355,3.0,8.0,0,-99.99,,,-99.99,,2013-02-19 21:32:00,
2013-02-19 13:42:00,35.0,-99.9,29.73,NW,325,3.0,10.0,0,-99.99,,,-99.99,,2013-02-19 21:42:00,
2013-02-19 13:52:00,35.0,-99.9,29.73,NW,325,3.0,10.0,0,-99.99,,,-99.99,,2013-02-19 21:52:00,
2013-02-19 14:02:00,36.0,-99.9,29.73,NNW,340,3.0,8.0,0,-99.99,,,-99.99,,2013-02-19 22:02:00,
2013-02-19 14:11:00,36.0,-99.9,29.73,NW,315,3.0,7.0,0,-99.99,,,-99.99,,2013-02-19 22:11:00,
2013-02-19 14:22:00,36.0,-99.9,29.73,NW,315,3.0,7.0,0,-99.99,,,-99.99,,2013-02-19 22:22:00,
2013-02-19 14:32:00,36.0,-99.9,29.73,NW,315,3.0,7.0,0,-99.99,,,-99.99,,2013-02-19 22:32:00,
2013-02-19 14:42:00,36.0,-99.9,29.73,NW,310,3.0,13.0,0,-99.99,,,-99.99,,2013-02-19 22:42:00,
2013-02-19 14:52:00,36.0,-99.9,29.73,NW,310,3.0,13.0,0,-99.99,,,-99.99,,2013-02-19 22:52:00,
2013-02-19 15:01:00,36.0,-99.9,29.74,NW,310,3.0,8.0,0,-99.99,,,-99.99,,2013-02-19 23:01:00,
2013-02-19 15:11:00,36.0,-99.9,29.74,NNW,330,3.0,8.0,0,-99.99,,,-99.99,,2013-02-19 23:11:00,
2013-02-19 15:21:00,36.0,-99.9,29.74,NNW,330,3.0,8.0,0,-99.99,,,-99.99,,2013-02-19 23:21:00,
2013-02-19 15:32:00,36.0,-99.9,29.75,NW,325,5.0,8.0,0,-99.99,,,-99.99,,2013-02-19 23:32:00,
2013-02-19 15:42:00,35.0,-99.9,29.76,NNW,345,3.0,8.0,0,-99.99,,,-99.99,,2013-02-19 23:42:00,
2013-02-19 15:52:00,35.0,-99.9,29.76,NNW,345,3.0,8.0,0,-99.99,,,-99.99,,2013-02-19 23:52:00,
2013-02-19 16:02:00,35.0,-99.9,29.76,NNW,345,3.0,8.0,0,-99.99,,,-99.99,,2013-02-20 00:02:00,
2013-02-19 16:12:00,34.0,-99.9,29.77,NW,320,3.0,10.0,0,-99.99,,,-99.99,,2013-02-20 00:12:00,
2013-02-19 16:22:00,34.0,-99.9,29.77,NW,320,3.0,10.0,0,-99.99,,,-99.99,,2013-02-20 00:22:00,
2013-02-19 16:32:00,34.0,-99.9,29.77,NNE,25,3.0,14.0,0,-99.99,,,-99.99,,2013-02-20 00:32:00,
2013-02-19 16:42:00,34.0,-99.9,29.77,NNW,345,3.0,10.0,0,-99.99,,,-99.99,,2013-02-20 00:42:00,
2013-02-19 16:52:00,34.0,-99.9,29.77,NNW,345,3.0,10.0,0,-99.99,,,-99.99,,2013-02-20 00:52:00,
2013-02-19 17:02:00,34.0,-99.9,29.78,NNW,340,3.0,9.0,0,-99.99,,,-99.99,,2013-02-20 01:02:00,
2013-02-19 17:11:00,35.0,-99.9,29.78,NNW,340,2.0,12.0,0,-99.99,,,-99.99,,2013-02-20 01:11:00,
2013-02-19 17:22:00,35.0,-99.9,29.78,NNW,340,2.0,12.0,0,-99.99,,,-99.99,,2013-02-20 01:22:00,
2013-02-19 17:32:00,34.0,-99.9,29.78,WNW,285,3.0,9.0,0,-99.99,,,-99.99,,2013-02-20 01:32:00,
2013-02-19 17:42:00,34.0,-99.9,29.79,North,350,3.0,9.0,0,-99.99,,,-99.99,,2013-02-20 01:42:00,
2013-02-19 17:52:00,34.0,-99.9,29.79,North,350,3.0,9.0,0,-99.99,,,-99.99,,2013-02-20 01:52:00,
2013-02-19 18:02:00,32.0,-99.9,29.80,ENE,65,3.0,9.0,0,-99.99,,,-99.99,,2013-02-20 02:02:00,
2013-02-19 18:11:00,31.0,-99.9,29.81,NNE,20,10.0,10.0,0,-99.99,,,-99.99,,2013-02-20 02:11:00,
2013-02-19 18:22:00,31.0,-99.9,29.81,NNE,20,10.0,10.0,0,-99.99,,,-99.99,,2013-02-20 02:22:00,
2013-02-19 18:32:00,30.0,-99.9,29.82,NW,320,1.0,3.0,0,-99.99,,,-99.99,,2013-02-20 02:32:00,
2013-02-19 18:42:00,30.0,-99.9,29.82,NW,320,1.0,3.0,0,-99.99,,,-99.99,,2013-02-20 02:42:00,
2013-02-19 18:52:00,30.0,-99.9,29.82,NW,320,1.0,3.0,0,-99.99,,,-99.99,,2013-02-20 02:52:00,
2013-02-19 19:02:00,29.0,-99.9,29.84,NNE,15,0.0,2.0,0,-99.99,,,-99.99,,2013-02-20 03:02:00,
2013-02-19 19:12:00,28.0,-99.9,29.84,North,5,0.0,1.0,0,-99.99,,,-99.99,,2013-02-20 03:12:00,
2013-02-19 19:22:00,28.0,-99.9,29.84,North,5,0.0,1.0,0,-99.99,,,-99.99,,2013-02-20 03:22:00,
2013-02-19 19:32:00,27.0,-99.9,29.85,ENE,70,0.0,1.0,0,-99.99,,,-99.99,,2013-02-20 03:32:00,
2013-02-19 19:42:00,27.0,-99.9,29.85,ENE,70,0.0,1.0,0,-99.99,,,-99.99,,2013-02-20 03:42:00,
2013-02-19 19:52:00,27.0,-99.9,29.86,ENE,75,0.0,1.0,0,-99.99,,,-99.99,,2013-02-20 03:52:00,
2013-02-19 20:02:00,27.0,-99.9,29.86,ESE,120,1.0,2.0,0,-99.99,,,-99.99,,2013-02-20 04:02:00,
2013-02-19 20:11:00,27.0,-99.9,29.86,ESE,120,0.0,1.0,0,-99.99,,,-99.99,,2013-02-20 04:11:00,
2013-02-19 20:22:00,27.0,-99.9,29.86,ESE,120,0.0,1.0,0,-99.99,,,-99.99,,2013-02-20 04:22:00,
2013-02-19 20:32:00,27.0,-99.9,29.87,ESE,120,0.0,0.0,0,-99.99,,,-99.99,,2013-02-20 04:32:00,
2013-02-19 20:42:00,27.0,-99.9,29.87,ESE,120,0.0,0.0,0,-99.99,,,-99.99,,2013-02-20 04:42:00,
2013-02-19 20:52:00,26.0,-99.9,29.87,ESE,120,0.0,0.0,0,-99.99,,,-99.99,,2013-02-20 04:52:00,
2013-02-19 21:02:00,26.0,-99.9,29.87,ESE,110,1.0,3.0,0,-99.99,,,-99.99,,2013-02-20 05:02:00,
2013-02-19 21:12:00,28.0,-99.9,29.88,East,85,0.0,1.0,0,-99.99,,,-99.99,,2013-02-20 05:12:00,
2013-02-19 21:22:00,28.0,-99.9,29.88,East,85,0.0,1.0,0,-99.99,,,-99.99,,2013-02-20 05:22:00,
2013-02-19 21:32:00,27.0,-99.9,29.89,East,85,0.0,1.0,0,-99.99,,,-99.99,,2013-02-20 05:32:00,
2013-02-19 21:43:00,27.0,-99.9,29.89,East,85,0.0,1.0,0,-99.99,,,-99.99,,2013-02-20 05:43:00,
2013-02-19 21:52:00,27.0,-99.9,29.90,East,80,0.0,1.0,0,-99.99,,,-99.99,,2013-02-20 05:52:00,
2013-02-19 22:02:00,27.0,-99.9,29.90,East,80,0.0,1.0,0,-99.99,,,-99.99,,2013-02-20 06:02:00,
2013-02-19 22:11:00,25.0,-99.9,29.91,NNW,340,0.0,0.0,0,-99.99,,,-99.99,,2013-02-20 06:11:00,
2013-02-19 22:22:00,25.0,-99.9,29.91,NNW,340,0.0,0.0,0,-99.99,,,-99.99,,2013-02-20 06:22:00,
2013-02-19 22:32:00,25.0,-99.9,29.91,East,100,0.0,1.0,0,-99.99,,,-99.99,,2013-02-20 06:32:00,
2013-02-19 22:42:00,25.0,-99.9,29.91,East,100,0.0,1.0,0,-99.99,,,-99.99,,2013-02-20 06:42:00,
2013-02-19 22:52:00,25.0,-99.9,29.92,East,100,0.0,1.0,0,-99.99,,,-99.99,,2013-02-20 06:52:00,
2013-02-19 23:02:00,25.0,-99.9,29.92,East,100,0.0,0.0,0,-99.99,,,-99.99,,2013-02-20 07:02:00,
2013-02-19 23:11:00,24.0,-99.9,29.93,East,100,0.0,0.0,0,-99.99,,,-99.99,,2013-02-20 07:11:00,
2013-02-19 23:21:00,24.0,-99.9,29.93,East,100,0.0,0.0,0,-99.99,,,-99.99,,2013-02-20 07:21:00,
2013-02-19 23:32:00,24.0,-99.9,29.93,ESE,105,0.0,1.0,0,-99.99,,,-99.99,,2013-02-20 07:32:00,
2013-02-19 23:42:00,24.0,-99.9,29.93,ESE,105,0.0,1.0,0,-99.99,,,-99.99,,2013-02-20 07:42:00,
2013-02-19 23:52:00,25.0,-99.9,29.93,East,100,0.0,0.0,0,-99.99,,,-99.99,,2013-02-20 07:52:00,